Regional Weather Roundup
Issued by NWS Charleston, SC

Current Version | Previous Version | Text Only | Print | Product List | Glossary Off
Versions: 1 2 3 4 5 6 7 8 9 10 11 12 13 14 15 16 17 18 19 20 21 22 23 24 25 26 27 28 29 30 31 32 33 34 35 36 37 38 39 40 41 42 43 44 45 46 47 48 49 50

000
ASUS42 KCHS 292310
RWRCHS
REGIONAL WEATHER ROUNDUP
NATIONAL WEATHER SERVICE CHARLESTON SC
700 PM EDT FRI AUG 29 2014

NOTE: "FAIR" INDICATES FEW OR NO CLOUDS BELOW 12,000 FEET WITH NO
SIGNIFICANT WEATHER AND/OR OBSTRUCTIONS TO VISIBILITY.

NOT ALL STATIONS ARE QUALITY CONTROLLED BY THE NATIONAL
WEATHER SERVICE. USE DATA WITH CAUTION...ESPECIALLY
DEWPOINT OBSERVATIONS.

SCZ027-030-031-034>040-042>050-300000-
...SOUTH CAROLINA...

CITY           SKY/WX    TMP DP  RH WIND       PRES   REMARKS
N CHARLESTON   PTCLDY    85  72  65 SE10      30.07S HX  91
WATERFRONT PRK NOT AVBL
FORT JOHNSON   NOT AVBL
MOUNT PLEASANT FAIR      82  77  83 SE6       30.07S HX  91
JOHNS ISLAND   MOCLDY    82  77  83 SE7       30.07S HX  91
PINOPOLIS        N/A     90  73  58 SE6       29.99R HX  98
MONCKS CORNER    N/A     86  77  74 S7        30.07R HX  97
SUMMERVILLE    MOCLDY    82  77  83 SE5       30.08R HX  91
BEAUFORT MCAS  CLEAR     85  69  58 S5        30.07R
BEAUFORT ARPT  FAIR      84  70  61 SE6       30.06S
HILTON HEAD IS CLEAR     84  73  70 SE5       30.08R HX  91
GEORGETOWN     NOT AVBL
WALTERBORO     CLEAR     88  55  33 SE9       30.07R
ORANGEBURG     SUNNY     91  62  37 S3        30.05R HX  91
BARNWELL       FAIR      93  63  36 SE7       30.05S HX  94
AIKEN          FAIR      91  63  38 SE8       30.08S HX  92
MANNING        FAIR      88  50  27 SE5       30.07R
KINGSTREE      NOT AVBL
COLUMBIA       MOSUNNY   92  54  27 SE10      30.04S HX  90
SUMTER         CLEAR     92  58  31 S6        30.05R HX  91
FLORENCE       CLEAR     90  62  39 SE6       30.06S HX  90
MYRTLE BEACH   PTCLDY    84  73  70 SE12      30.08F HX  91
N MYRTLE BEACH CLEAR     83  74  74 SE8       30.08S

$$

GAZ063-065-086>088-099>101-113>116-118-119-134-136>141-150-300000-
...GEORGIA...

CITY           SKY/WX    TMP DP  RH WIND       PRES   REMARKS
SAVANNAH ARPT  MOSUNNY   87  70  56 SE10      30.06R HX  92
HUNTER AAF     SUNNY     85  73  66 SE8       30.04S HX  91
FORT STEWART   SUNNY     87  69  54 SE7       30.04R HX  91
STATESBORO     NOT AVBL
SYLVANIA       CLEAR     89  66  46 CALM      30.05S HX  91
CLAXTON        NOT AVBL
THOMSON        SUNNY     94  64  36 CALM      30.08S HX  95
AUGUSTA-BUSH   SUNNY     90  61  37 SE7       30.02F HX  90
AUGUSTA-DANIEL SUNNY     94  54  25 SE6       30.04F HX  92
SWAINSBORO     MOCLDY    93  64  38 E6        30.03S HX  95
VIDALIA          N/A     90  64  43 E7        30.03R HX  91
ALMA           SUNNY     92  62  36 E6        30.02R HX  92
WAYCROSS       CLOUDY    92  73  52 SE9       30.02S HX 100
JESUP            N/A     90  70  51 SE7       30.04R HX  95
BRUNSWICK      SUNNY     86  72  62 SE8       30.06S HX  92
SAINT SIMONS   SUNNY     84  74  71 SE13      30.05S HX  91

$$

SCZ027-028-034-036>038-045-046-048>050-GAZ119-141-300000-
...LAKE AND SUPPLEMENTAL COASTAL OBSERVATIONS...

STATION/POSITION TIME  TEMP    WIND        PRES    WAVE   SWELL
                       AIR SEA DIR/SP/G            HT/PER HT/PER/DIR
                 (UTC) (F)     (DEG/KT/KT) (MB)    (FT/S) (FT/S/D)
UPR LAKE MARION  NOT AVBL
WINYAH BAY       2200   83     120/ 10     1018.0S
LAKE MURRAY      2200   91     160/  8/  9 1016.6R
ACE BASIN NERRS  2200   87     140/  3     1018.0S
FORT PULASKI     2300   84     130/  6/ 11 1018.4R
SAPELO ISLAND    NOT AVBL

$$

ANZ835-935-AMZ111-154-330-350-352-354-374-450-454-472-300000-
...C-MAN AND BUOY OBSERVATIONS...

STATION/POSITION TIME  TEMP    WIND        PRES    WAVE   SWELL
                       AIR SEA DIR/SP/G            HT/PER HT/PER/DIR
                 (UTC) (F)     (DEG/KT/KT) (MB)    (FT/S) (FT/S/D)
FOLLY BEACH CMAN 2200   82     110/ 10/ 11 1018.8R
BUOY 41004       2300   83 83  110/  6/  6 1018.1R   3/ 9   3/ 9
BUOY 41008       2300   83 85  130/ 12/ 14 1018.0R   2/ 8   2/ 90/ 8
5E ST. MARYS GA  2300      85                N/A     2/ 8
FRYING PAN BUOY  NOT AVBL
BUOY 41025       2300   79      40/ 12/ 14 1019.7F   3/ 8   3/120/ 8
CAPE LOOKOUT NC  2200   81     160/  3/  4 1019.7R
BUOY 41002       2154   81 83  100/  8/ 10 1020.2    4/ 9   3/110/ 9
BUOY 41010       2300   84 84  120/  2/  2 1018.6R   3/ 8   3/100/ 8
BUOY 41012       NOT AVBL
ST AUGUSTINE FL  2300   77     170/ 14/ 15 1018.1R
CAPERS NEARSHORE 2200   83     120/ 12/ 14   N/A
FRIPP NEARSHORE  NOT AVBL


$$


USA.gov is the U.S. government's official web portal to all federal, state and local government web resources and services.